Simultaneous Nadir Overpasses (SNOs) Predictions

Prediction of SNOs between GOES-17 and METOP-B Satellite Orbit:

Table of predicted SNOs for the next 14.0 days since TLE Epoch: 5/6/2023
Index Date Time (GOES-17) GOES-17 Lat,Lon METOP-B Lat,Lon Distance(km) Time Diff (sec)
1 05/07/2023 04:34:33 0.00,-104.71 -0.22,-105.80 124.31 80
2 05/08/2023 04:11:13 0.00,-104.70 0.87,-100.80 444.63 80
3 05/09/2023 16:30:03 0.00,-104.74 0.14,-105.36 70.66 80
4 05/10/2023 16:12:03 0.00,-104.74 -0.96,-100.36 498.27 80
5 05/12/2023 04:31:02 -0.00,-104.69 -0.05,-104.96 30.63 80
6 05/14/2023 16:29:12 0.00,-104.72 -0.06,-104.52 23.38 80
7 05/17/2023 04:24:50 -0.01,-104.68 0.12,-104.11 64.92 80
8 05/18/2023 16:43:40 0.01,-104.72 0.87,-108.67 450.17 80
9 05/19/2023 16:25:39 0.01,-104.72 -0.25,-103.68 119.40 80
